Find Leasat 2

NORAD ID: 15236 Int'l Des: 1984-093 Owner: HCI Country: US operational
HEOCIRCULAR

Live-Position

3D-Globus wird geladen...

Über Leasat 2

Beschreibung wird geladen...

Nächste Überflüge

Passes for default location (London). Set your location on the main map for personalized predictions.

Höhenverlauf

Loading altitude history...

Zweizeiliger Elementsatz

1 15236U 84093C 26105.63068553 -.00000075 00000-0 00000+0 0 9993
2 15236 10.9168 312.6276 0030085 284.6278 64.5192 0.97455230127444
Epoch: 15. Apr. 2026 • Age: 13 hours

Aktueller Status

Höhe 36637.7 km
Geschwindigkeit 3.04 km/s
Subsatellitenpunkt 0.99°N, 134.64°W
Startdatum 30. Aug. 1984
Alter 41.6 years
Typ other

Technische Details

Klassifizierung Payload
Masse 3231.00 kg
Trockenmasse 1230.00 kg
Gesamtmasse 3231.00 kg
Länge 4.00 m
Durchmesser 4.30 m
Spannweite 6.20 m
Form Cyl + Ant
Hersteller HSES
Bus-Typ HS-381
Phasenstatus In Orbit
Besitzer/Staat HCI/US

Most Searched